Location: Newark
(12.4436°N, 0.6167°W)
Time: 19:54:33
(UTC+00:00)

Vanguard 2 - Pass Details

Date: 12 December 2019
Orbit: 553 x 2938 km, 32.9° (Epoch: 21 January)

Event Time Altitude Azimuth Distance (km) Brightness Sun altitude
Rises 02:01:13 0° 279° (W) 5,745 - -58.4°
Reaches altitude 10° 02:05:08 10° 287° (WNW) 5,026 - -57.5°
Maximum altitude 02:19:15 38° 351° (N) 3,824 - -54.4°
Exits shadow 02:25:16 32° 24° (NNE) 4,212 11.1 -53.0°
Drops below altitude 10° 02:35:16 10° 54° (NE) 5,641 12.1 -50.7°
Sets 02:40:02 0° 62° (ENE) 6,487 12.6 -49.6°
